OBJECT D, 44882

Orbit data source: Space-Track

You're viewing an Uncataloged Satellite

Recently launched and/or uncataloged satellites may have evolving metadata. Metadata may include but not limited to: Owner, Maufacturer, Bus, Motor, and Mission.

OBJECT D, 44882 is a satellite in SSO that was launched on Fri, 20 Dec 2019 UTC via a CHANG ZHENG 4B launch vehicle from the Taiyaun Space Center, China (TSC). Unknown objects in Earth's orbit typically refer to objects detected orbiting the Earth but have not yet been identified or cataloged. These objects could be anything from previously untracked satellites, spent rocket stages, debris from satellite collisions, or even natural meteoroids temporarily captured by Earth's gravity.

Loading next visibility...
Identifier
44882, 2019-093D
Orbit
SSO
Country
Flag of TBDTBD
Related business
None
Manufacturer
Unknown
Mission
Operational Commercial Communications
Bus & Motor
Unknown
Mass
Unknown
Launch date (UTC)
2019-12-20 (7 years ago)
Launch vehicle
CHANG ZHENG 4B
Launch site
Taiyaun Space Center, China (TSC)
Object type
Unknown
Shape & HBR
Box, Unknown HBR
Radar Cross Section
0.195 m², Large (>1 m²)

Expand to show TLE details & history
Last TLE update: 7 hours ago

TLE from 7 hours ago
0 OBJECT D
1 44882U 19093D   26208.59784588  .00006935  00000-0  48365-3 0  9992
2 44882  97.7949 303.7882 0012381 241.7112 118.2865 15.05664005358691
Epoch: 2026-07-27T14:20Z
TLE epoch observation values (Epoch: 2026-07-27T14:20:53.884Z)
Latitude
-0.00003°
Longitude
143.28456°
Altitude
556.601 km
Speed
7.581 km/s
True Right ascension
20h 15m 09s
True Declination
0° 00' 00"
Sunlit
Object was in full shadow at epoch
Visualization orbit readout
Latitude
Unknown
Longitude
Unknown
Altitude
Unknown
Speed
Unknown
Apparent Right ascension
Unknown
Apparent Declination
Unknown
Sunlit
N/A
Visualization observer readout
Local Sidereal Time
10:30:03
Azimuth
Unknown
Elevation
Unknown
Doppler factor
Unknown
Orbital elements
Apogee altitude
555.043 km
Perigee altitude
537.897 km
Semi-major axis
6,924.607 km
Eccentricity
0.00124
Inclination
97.7949°
RAAN
303.7882°
Arg. of periapsis
241.7112°
True anomaly
118.41134°
Mean anomaly
118.2865°
Eccentric anomaly
118.34893°
Mean motion
3.76661 °/min
Orbital period
95.58 mins
BSTAR
0.00048365
Loading maneuver chart data...
Computing Atmospheric mass density...
Loading historical data...
Loading historical data...
Loading historical data...
Loading historical data...
Loading historical data...
Loading historical data...
Loading historical data...

Documentation

Showing up to 5 results
|